Main page
METAR-TAF:

METAR-TAF

Airports :

Passo Rolle, Italy

latitude: 46-18N, longitude: 011-47E, elevation: 2004 m

Current weather observation

The report was made 1 hour and 21 minutes ago, at 17:55 UTC
Wind 5 kt from the North
Temperature -2°C
Humidity 54%
Pressure 1016 hPa
Visibility 10 km or more
no clouds below 1500 m and no cumulonimbus

METAR: LIVR 201755Z 35005KT CAVOK M02/M10 Q1016 RMK SKC MON LIB VIS MIN 9999

Time: 20:16 (19:16 UTC)


TAF: missing

Weather observations and forecasts of more than 4000 airports (METAR and TAF reports).

The available stations are represented by yellow and red dots on the map.

Hover mouse over dot to see the name of the station.

Then click to see weather observations and forecasts.

To change the map : click on the green buttons with a black cross to zoom in, on the green button with a dash to zoom out, or on the green arrows for adjacent maps.


METAR-TAF: